When you browse on this site, cookies collect data to enhance your experience and personalize the content and advertising you see.
Visit our Privacy Policy to learn more. By continuing to use the site, you agree to this use of cookies and data.
  • In Latvia
  • List of Countries
  • For 7 days
  • Water Temperature
  • Satellite Maps
  • Weather Map
  • Weather Widgets
  • user-avatar
    Login

    Hourly Weather Misrata

    Today, 18 June, Tuesday

    Time Temperature Precipitation Wind Pressure Humidity
    00:00 +29°C° 0.1 mm 7 mps 755 mmHg 47%
    01:00 +29°C° 0 mm 6 mps 755 mmHg 48%
    02:00 +29°C° 0.1 mm 4 mps 755 mmHg 49%
    03:00 +28°C° 0.1 mm 3 mps 755 mmHg 51%
    04:00 +28°C° 0.1 mm 2 mps 755 mmHg 52%
    05:00 +28°C° 0.2 mm 2 mps 755 mmHg 51%
    06:00 +29°C° 0.2 mm 2 mps 756 mmHg 49%
    07:00 +29°C° 0.2 mm 2 mps 756 mmHg 47%
    08:00 +31°C° 0 mm 3 mps 756 mmHg 43%
    09:00 +33°C° 0 mm 4 mps 756 mmHg 40%
    10:00 +34°C° 0 mm 5 mps 756 mmHg 36%
    11:00 +35°C° 0 mm 5 mps 756 mmHg 32%
    12:00 +36°C° 0 mm 5 mps 756 mmHg 28%
    13:00 +39°C° 0 mm 5 mps 756 mmHg 24%
    14:00 +37°C° 0 mm 5 mps 756 mmHg 27%
    15:00 +36°C° 0 mm 5 mps 756 mmHg 29%
    16:00 +35°C° 0 mm 6 mps 756 mmHg 32%
    17:00 +34°C° 0 mm 5 mps 756 mmHg 36%
    18:00 +33°C° 0 mm 4 mps 756 mmHg 39%
    19:00 +32°C° 0 mm 4 mps 756 mmHg 43%
    20:00 +30°C° 0 mm 4 mps 757 mmHg 48%
    21:00 +29°C° 0 mm 3 mps 757 mmHg 52%
    22:00 +29°C° 0 mm 3 mps 758 mmHg 57%
    23:00 +28°C° 0 mm 3 mps 757 mmHg 59%

    Tomorrow, 19 June, Wednesday

    Time Temperature Precipitation Wind Pressure Humidity
    00:00 +28°C° 0 mm 3 mps 757 mmHg 61%
    01:00 +27°C° 0 mm 3 mps 757 mmHg 64%
    02:00 +27°C° 0 mm 3 mps 757 mmHg 66%
    03:00 +26°C° 0 mm 3 mps 757 mmHg 69%
    04:00 +26°C° 0 mm 3 mps 757 mmHg 71%
    05:00 +26°C° 0 mm 3 mps 757 mmHg 69%
    06:00 +27°C° 0 mm 2 mps 758 mmHg 66%
    07:00 +27°C° 0 mm 2 mps 758 mmHg 64%
    08:00 +29°C° 0 mm 2 mps 758 mmHg 56%
    09:00 +30°C° 0 mm 2 mps 759 mmHg 48%
    10:00 +33°C° 0 mm 3 mps 759 mmHg 40%
    11:00 +34°C° 0 mm 3 mps 759 mmHg 39%
    12:00 +34°C° 0 mm 4 mps 758 mmHg 38%
    13:00 +35°C° 0 mm 4 mps 758 mmHg 37%
    14:00 +35°C° 0 mm 4 mps 758 mmHg 37%
    15:00 +34°C° 0 mm 4 mps 758 mmHg 36%
    16:00 +34°C° 0 mm 4 mps 757 mmHg 36%
    17:00 +33°C° 0 mm 4 mps 757 mmHg 39%
    18:00 +32°C° 0 mm 4 mps 758 mmHg 41%
    19:00 +30°C° 0 mm 3 mps 758 mmHg 44%
    20:00 +30°C° 0 mm 3 mps 758 mmHg 48%
    21:00 +29°C° 0 mm 2 mps 758 mmHg 52%
    22:00 +28°C° 0 mm 2 mps 759 mmHg 55%
    23:00 +28°C° 0 mm 1 mps 758 mmHg 57%

    Day after tomorrow, 20 June, Thursday

    Time Temperature Precipitation Wind Pressure Humidity
    00:00 +27°C° 0 mm 1 mps 758 mmHg 58%
    01:00 +25°C° 0 mm 0 mps 758 mmHg 60%
    02:00 +24°C° 0 mm 0 mps 758 mmHg 61%
    03:00 +24°C° 0 mm 0 mps 757 mmHg 63%
    04:00 +24°C° 0 mm 0 mps 757 mmHg 64%
    05:00 +24°C° 0 mm 0 mps 758 mmHg 62%
    06:00 +27°C° 0 mm 1 mps 758 mmHg 59%
    07:00 +28°C° 0 mm 1 mps 758 mmHg 56%
    08:00 +29°C° 0 mm 1 mps 758 mmHg 48%
    09:00 +31°C° 0 mm 1 mps 758 mmHg 41%
    10:00 +33°C° 0 mm 1 mps 758 mmHg 33%
    11:00 +35°C° 0 mm 2 mps 758 mmHg 30%
    12:00 +36°C° 0 mm 3 mps 758 mmHg 27%
    13:00 +37°C° 0 mm 3 mps 758 mmHg 24%
    14:00 +37°C° 0 mm 4 mps 757 mmHg 25%
    15:00 +36°C° 0 mm 4 mps 757 mmHg 25%
    16:00 +36°C° 0 mm 4 mps 757 mmHg 26%
    17:00 +35°C° 0 mm 4 mps 757 mmHg 29%
    18:00 +33°C° 0 mm 4 mps 757 mmHg 33%
    19:00 +32°C° 0 mm 4 mps 758 mmHg 37%
    20:00 +30°C° 0 mm 3 mps 758 mmHg 40%
    21:00 +29°C° 0 mm 3 mps 758 mmHg 44%
    22:00 +28°C° 0 mm 2 mps 758 mmHg 48%
    23:00 +28°C° 0 mm 2 mps 758 mmHg 49%

    21 June, Friday

    Time Temperature Precipitation Wind Pressure Humidity
    00:00 +27°C° 0 mm 2 mps 758 mmHg 51%
    01:00 +27°C° 0 mm 1 mps 758 mmHg 53%
    02:00 +26°C° 0 mm 1 mps 758 mmHg 54%
    03:00 +25°C° 0 mm 1 mps 758 mmHg 56%
    04:00 +25°C° 0 mm 1 mps 758 mmHg 57%
    05:00 +26°C° 0 mm 1 mps 758 mmHg 53%
    06:00 +26°C° 0 mm 1 mps 758 mmHg 50%
    07:00 +27°C° 0 mm 1 mps 759 mmHg 46%
    08:00 +29°C° 0 mm 2 mps 759 mmHg 39%
    09:00 +31°C° 0 mm 2 mps 759 mmHg 31%
    10:00 +32°C° 0 mm 2 mps 759 mmHg 24%
    11:00 +34°C° 0 mm 3 mps 759 mmHg 22%
    12:00 +35°C° 0 mm 4 mps 758 mmHg 20%
    13:00 +37°C° 0 mm 5 mps 758 mmHg 18%
    14:00 +37°C° 0 mm 5 mps 758 mmHg 18%
    15:00 +36°C° 0 mm 5 mps 758 mmHg 19%
    16:00 +36°C° 0 mm 5 mps 758 mmHg 19%
    17:00 +35°C° 0 mm 5 mps 758 mmHg 25%
    18:00 +33°C° 0 mm 5 mps 758 mmHg 31%
    19:00 +32°C° 0 mm 5 mps 758 mmHg 37%
    20:00 +30°C° 0 mm 5 mps 758 mmHg 41%
    21:00 +29°C° 0 mm 4 mps 759 mmHg 45%
    22:00 +28°C° 0 mm 4 mps 759 mmHg 49%
    23:00 +28°C° 0 mm 4 mps 759 mmHg 51%

    22 June, Saturday

    Time Temperature Precipitation Wind Pressure Humidity
    00:00 +27°C° 0 mm 3 mps 759 mmHg 53%
    01:00 +27°C° 0 mm 3 mps 759 mmHg 56%
    02:00 +26°C° 0 mm 3 mps 758 mmHg 57%
    03:00 +26°C° 0 mm 3 mps 758 mmHg 58%
    04:00 +25°C° 0 mm 3 mps 758 mmHg 59%
    05:00 +26°C° 0 mm 3 mps 758 mmHg 55%
    06:00 +27°C° 0 mm 3 mps 758 mmHg 50%
    07:00 +28°C° 0 mm 4 mps 759 mmHg 46%
    08:00 +30°C° 0 mm 3 mps 759 mmHg 39%
    09:00 +33°C° 0 mm 3 mps 759 mmHg 32%
    10:00 +35°C° 0 mm 3 mps 759 mmHg 26%
    11:00 +36°C° 0 mm 3 mps 759 mmHg 23%
    12:00 +37°C° 0 mm 4 mps 759 mmHg 21%
    13:00 +38°C° 0 mm 4 mps 759 mmHg 19%
    14:00 +39°C° 0 mm 5 mps 759 mmHg 20%
    15:00 +39°C° 0 mm 6 mps 758 mmHg 21%
    16:00 +38°C° 0 mm 6 mps 758 mmHg 22%
    17:00 +36°C° 0 mm 6 mps 758 mmHg 26%
    18:00 +34°C° 0 mm 6 mps 758 mmHg 31%
    19:00 +33°C° 0 mm 5 mps 759 mmHg 36%
    20:00 +32°C° 0 mm 5 mps 759 mmHg 40%
    21:00 +30°C° 0 mm 4 mps 759 mmHg 43%
    22:00 +29°C° 0 mm 3 mps 760 mmHg 47%
    23:00 +29°C° 0 mm 3 mps 760 mmHg 49%

    23 June, Sunday

    Time Temperature Precipitation Wind Pressure Humidity
    00:00 +28°C° 0 mm 3 mps 760 mmHg 52%
    01:00 +28°C° 0 mm 3 mps 759 mmHg 54%
    02:00 +27°C° 0 mm 3 mps 759 mmHg 55%
    03:00 +27°C° 0 mm 2 mps 759 mmHg 55%
    04:00 +27°C° 0 mm 2 mps 759 mmHg 56%
    05:00 +27°C° 0 mm 2 mps 759 mmHg 52%
    06:00 +28°C° 0 mm 2 mps 759 mmHg 49%
    07:00 +29°C° 0 mm 3 mps 760 mmHg 45%
    08:00 +31°C° 0 mm 2 mps 760 mmHg 38%
    09:00 +32°C° 0 mm 2 mps 760 mmHg 32%
    10:00 +35°C° 0 mm 2 mps 760 mmHg 25%
    11:00 +36°C° 0 mm 3 mps 760 mmHg 23%
    12:00 +38°C° 0 mm 3 mps 760 mmHg 21%
    13:00 +40°C° 0 mm 4 mps 760 mmHg 19%
    14:00 +39°C° 0 mm 5 mps 760 mmHg 20%
    15:00 +39°C° 0 mm 5 mps 760 mmHg 20%
    16:00 +38°C° 0 mm 6 mps 759 mmHg 21%
    17:00 +36°C° 0 mm 5 mps 760 mmHg 25%
    18:00 +34°C° 0 mm 5 mps 760 mmHg 30%
    19:00 +33°C° 0 mm 5 mps 760 mmHg 34%
    20:00 +32°C° 0 mm 4 mps 760 mmHg 37%
    21:00 +30°C° 0 mm 3 mps 761 mmHg 40%
    22:00 +30°C° 0 mm 2 mps 761 mmHg 43%
    23:00 +29°C° 0 mm 2 mps 761 mmHg 45%
    Show more